Meacham, OR

10:39 PM PDT on May 27, 2018 (GMT -0700)
Meacham

Weather History for KMEH - January, 2014

Change the Weather History Date:

Wednesday, January 22, 2014

  Actual Average Record
Temperature  
Mean Temperature 29 °F -  
Max Temperature 37 °F 34 °F 71 °F (2012)
Min Temperature 21 °F 20 °F -22 °F (2008)
Degree Days  
Heating Degree Days 36    
Moisture  
Dew Point 22 °F    
Average Humidity 82    
Maximum Humidity 88    
Minimum Humidity 65    
Precipitation  
Precipitation 0.00 in - - ()
Sea Level Pressure  
Sea Level Pressure 30.34 in    
Wind  
Wind Speed 1 mph (North)    
Max Wind Speed 6 mph    
Max Gust Speed -    
Visibility 9 miles    
Events      
Averages and records for this station are not official NWS values.
T = Trace of Precipitation, MM = Missing Value Source: NWS Daily Summary

Daily Weather History Graph

Daily Weather History Graph

Search for Another Location

Airport or City:

Astronomy

Jan. 22, 2014 Rise Set
Actual Time 7:24 AM PST 4:46 PM PST
Civil Twilight 6:52 AM PST 5:18 PM PST
Nautical Twilight 6:16 AM PST 5:54 PM PST
Astronomical Twilight 5:40 AM PST 6:30 PM PST
Moon 11:45 PM PST (1/22) 10:08 AM PST (1/22)
Length of Visible Light 10h 26m
Length of Day
9h 21m
Waning Gibbous, 64% of the Moon is Illuminated
Jan 22
Waning Gibbous
Jan 23
Last Quarter
Jan 30
New
Feb 6
First Quarter
Feb 14
Full

Hourly Weather History & Observations

Time (PST) Temp. Windchill Dew Point Humidity Pressure Visibility Wind Dir Wind Speed Gust Speed Precip Events Conditions
12:56 AM 24.1 °F - 19.9 °F 84% 30.31 in 10.0 mi Calm Calm - N/A   Clear
1:56 AM 24.1 °F - 19.9 °F 84% 30.31 in 10.0 mi Calm Calm - N/A   Mostly Cloudy
2:56 AM 23.0 °F - 19.0 °F 85% 30.30 in 10.0 mi Calm Calm - N/A   Partly Cloudy
3:56 AM 21.9 °F - 18.0 °F 85% 30.31 in 10.0 mi Calm Calm - N/A   Mostly Cloudy
4:56 AM 21.0 °F - 17.1 °F 85% 30.33 in 10.0 mi Calm Calm - N/A   Clear
5:56 AM 21.9 °F - 18.0 °F 85% 30.34 in 10.0 mi Calm Calm - N/A   Overcast
6:56 AM 24.1 °F - 19.9 °F 84% 30.35 in 10.0 mi Calm Calm - N/A   Overcast
7:56 AM 26.1 °F - 21.9 °F 84% 30.34 in 10.0 mi Calm Calm - N/A   Overcast
8:56 AM 30.0 °F - 25.0 °F 82% 30.34 in 10.0 mi Calm Calm - 0.00 in   Mostly Cloudy
9:56 AM 34.0 °F - 25.0 °F 70% 30.31 in 10.0 mi Calm Calm - N/A   Clear
10:56 AM 34.0 °F 31.0 °F 25.0 °F 70% 30.33 in 10.0 mi Variable 3.5 mph - N/A   Clear
11:56 AM 34.0 °F 31.0 °F 26.1 °F 73% 30.33 in 10.0 mi Variable 3.5 mph - N/A   Clear
12:56 PM 37.0 °F - 26.1 °F 65% 30.31 in 10.0 mi Calm Calm - N/A   Clear
1:56 PM 35.1 °F 32.2 °F 27.0 °F 72% 30.32 in 10.0 mi Variable 3.5 mph - N/A   Clear
2:38 PM 34.0 °F 29.8 °F 27.0 °F 75% 30.25 in 10.0 mi Variable 4.6 mph - N/A   Mostly Cloudy
2:56 PM 32.0 °F 26.4 °F 27.0 °F 82% 30.35 in 10.0 mi Variable 5.8 mph - N/A   Overcast
3:56 PM 30.0 °F - 26.1 °F 85% 30.38 in 10.0 mi Calm Calm - N/A   Overcast
4:24 PM 28.9 °F - 24.1 °F 82% 30.27 in 10.0 mi Calm Calm - N/A   Scattered Clouds
4:56 PM 28.0 °F - 23.0 °F 81% 30.38 in 10.0 mi Calm Calm - N/A   Clear
5:56 PM 27.0 °F - 23.0 °F 85% 30.38 in 10.0 mi Calm Calm - N/A   Clear
6:56 PM 26.1 °F - 21.9 °F 84% 30.39 in 10.0 mi Calm Calm - N/A   Clear
7:56 PM 24.1 °F - 21.0 °F 88% 30.40 in 10.0 mi Calm Calm - N/A   Clear
8:56 PM 23.0 °F - 19.9 °F 88% 30.40 in 10.0 mi Calm Calm - N/A   Clear
9:09 PM 23.0 °F - 19.9 °F 88% 30.30 in 10.0 mi Calm Calm - N/A   Mostly Cloudy
9:56 PM 24.1 °F - 21.0 °F 88% 30.41 in 10.0 mi Calm Calm - N/A   Overcast
10:13 PM 25.0 °F - 21.0 °F 85% 30.31 in 10.0 mi Calm Calm - N/A   Overcast
10:56 PM 26.1 °F - 23.0 °F 88% 30.41 in 4.0 mi Calm Calm - N/A   Overcast
11:04 PM 26.1 °F 21.9 °F 23.0 °F 88% 30.32 in 1.8 mi Variable 3.5 mph - N/A   Overcast
11:24 PM 25.0 °F 20.7 °F 21.9 °F 88% 30.32 in 0.8 mi Variable 3.5 mph - N/A   Mist
11:56 PM 25.0 °F - 21.9 °F 88% 30.43 in 0.8 mi Calm Calm - 0.00 in   Mist